This is the latest recevied weather packets stored in our database for station/object K5FEP. If no packets are shown the sender has not sent any weather packets the latest 10 day(s).
| Time | Temp. | Humidity | Pressure | Rain* | Wind** | Luminosity | Snow |
|---|---|---|---|---|---|---|---|
| 1787862440 | 30.56° C | 62% | 1013.6 hPa | 0 mm | - | 172 W/m² | - |
| 1787862135 | 31.11° C | 59% | 1013.6 hPa | 0 mm | - | 208 W/m² | - |
| 1787861830 | 31.11° C | 58% | 1013.5 hPa | 0 mm | - | 210 W/m² | - |
| 1787861528 | 31.67° C | 56% | 1013.4 hPa | 0 mm | - | 400 W/m² | - |
| 1787861223 | 31.67° C | 58% | 1013.5 hPa | 0 mm | - | 346 W/m² | - |
| 1787860922 | 31.11° C | 57% | 1013.3 hPa | 0 mm | - | 460 W/m² | - |
| 1787860617 | 30.56° C | 57% | 1013.5 hPa | 0 mm | - | 347 W/m² | - |
| 1787860312 | 30.56° C | 57% | 1013.7 hPa | 0 mm | - | 323 W/m² | - |
| 1787860007 | 31.11° C | 56% | 1013.4 hPa | 0 mm | - | 329 W/m² | - |
| 1787859703 | 31.67° C | 56% | 1013.5 hPa | 0 mm | - | 335 W/m² | - |
| 1787859403 | 31.67° C | 55% | 1013.6 hPa | 0 mm | - | 318 W/m² | - |
| 1787859099 | 31.11° C | 55% | 1013.7 hPa | 0 mm | - | 342 W/m² | - |
| 1787858795 | 31.11° C | 55% | 1013.5 hPa | 0 mm | - | 335 W/m² | - |
| 1787858490 | 31.11° C | 57% | 1013.6 hPa | 0 mm | - | 362 W/m² | - |
| 1787858189 | 31.11° C | 56% | 1013.7 hPa | 0 mm | - | 349 W/m² | - |
| 1787857885 | 31.11° C | 56% | 1013.7 hPa | 0 mm | - | 331 W/m² | - |
| 1787857582 | 31.11° C | 56% | 1013.8 hPa | 0 mm | - | 345 W/m² | - |
| 1787857281 | 30.56° C | 58% | 1013.7 hPa | 0 mm | - | 368 W/m² | - |
| 1787856980 | 30.56° C | 57% | 1013.9 hPa | 0 mm | - | 377 W/m² | - |
| 1787856674 | 30.56° C | 59% | 1014.2 hPa | 0 mm | - | 358 W/m² | - |
| 1787856375 | 30.56° C | 59% | 1014.2 hPa | 0 mm | - | 370 W/m² | - |
| 1787856070 | 30° C | 61% | 1014.2 hPa | 0 mm | - | 371 W/m² | - |
| 1787855770 | 30° C | 61% | 1014.2 hPa | 0 mm | - | 316 W/m² | - |
| 1787855465 | 30.56° C | 60% | 1014.4 hPa | 0 mm | - | 338 W/m² | - |
| 1787855161 | 30.56° C | 60% | 1014.4 hPa | 0 mm | - | 262 W/m² | - |
* Rain latest hour (hover to see other rain measurements)
** Current wind speed in m/s (hover to see current wind gust speed)